User: anonymous   Login
Location: Newark
(51.4331°N, 13.2167°E)
Time: 09:53:30
(UTC+00:00)
Language:

LightSail 2 - Orbit

View from above orbital plane
View from above orbital plane
View from above satellite
View from above satellite

Ground track
Ground track

The orbit data is extracted from the following two-line orbital elements,

1 44420U 19036AC  21209.92983703  .00001017  00000-0  16105-3 0  9993
2 44420  24.0039  49.5705 0019875 287.8056  72.0269 14.60076308109685
Epoch (UTC): 28 July 2021 22:18:57
Eccentricity: 0.0019875
inclination: 24.0039°
perigee height: 679 km
apogee height: 707 km
right ascension of ascending node: 49.5705°
argument of perigee: 287.8056°
revolutions per day: 14.60076308
mean anomaly at epoch: 72.0269°
orbit number at epoch: 10968

The dashed part of the orbit path shows where the satellite is in the earth's shadow,  

DLR